�������l�o���
Date,Time,MP-1(��Sv/h),MP-2(��Sv/h),MP-3(��Sv/h),MP-4(��Sv/h),MP-5(��Sv/h),MP-6(��Sv/h),MP-7(��Sv/h),MP-8(��Sv/h),����,����(m/s),���J
2020/05/01,00:00,0.700,1.010,0.665,1.221,0.874,0.402,0.698,0.661,��,3.9,��
2020/05/01,00:10,0.700,1.010,0.664,1.221,0.874,0.402,0.697,0.660,��,3.9,��
2020/05/01,00:20,0.701,1.010,0.665,1.220,0.875,0.402,0.696,0.659,��,5.2,��
2020/05/01,00:30,0.701,1.012,0.665,1.218,0.874,0.401,0.699,0.659,��,5.9,��
2020/05/01,00:40,0.699,1.012,0.664,1.221,0.875,0.403,0.696,0.659,��,6.0,��
2020/05/01,00:50,0.701,1.011,0.664,1.220,0.875,0.400,0.698,0.661,��,5.6,��
2020/05/01,01:00,0.701,1.012,0.664,1.221,0.874,0.401,0.699,0.659,��,5.6,��
2020/05/01,01:10,0.701,1.010,0.664,1.220,0.874,0.400,0.699,0.660,��,6.9,��
2020/05/01,01:20,0.701,1.012,0.665,1.222,0.875,0.401,0.699,0.660,��쐼,7.3,��
2020/05/01,01:30,0.700,1.011,0.662,1.219,0.874,0.400,0.698,0.662,��쐼,6.4,��
2020/05/01,01:40,0.699,1.013,0.663,1.218,0.875,0.402,0.698,0.660,��쐼,5.3,��
2020/05/01,01:50,0.701,1.012,0.665,1.221,0.874,0.400,0.698,0.660,��,4.5,��
2020/05/01,02:00,0.698,1.009,0.664,1.220,0.872,0.401,0.696,0.660,��,5.4,��
2020/05/01,02:10,0.701,1.011,0.663,1.220,0.876,0.402,0.699,0.661,��쐼,3.9,��
2020/05/01,02:20,0.700,1.012,0.664,1.221,0.878,0.402,0.697,0.659,��쐼,3.4,��
2020/05/01,02:30,0.700,1.012,0.662,1.220,0.872,0.400,0.697,0.659,��쐼,2.8,��
2020/05/01,02:40,0.701,1.010,0.663,1.219,0.876,0.401,0.696,0.661,��쐼,3.6,��
2020/05/01,02:50,0.699,1.012,0.663,1.221,0.877,0.401,0.699,0.660,�쐼,2.6,��
2020/05/01,03:00,0.699,1.011,0.664,1.221,0.874,0.401,0.698,0.661,���쐼,2.6,��
2020/05/01,03:10,0.701,1.011,0.666,1.222,0.875,0.402,0.696,0.659,�쐼,2.8,��
2020/05/01,03:20,0.701,1.011,0.663,1.220,0.875,0.401,0.699,0.661,�쐼,4.5,��
2020/05/01,03:30,0.699,1.008,0.664,1.217,0.875,0.402,0.697,0.659,��쐼,5.4,��
2020/05/01,03:40,0.698,1.010,0.663,1.222,0.874,0.402,0.697,0.661,�쐼,6.2,��
2020/05/01,03:50,0.701,1.010,0.664,1.220,0.873,0.400,0.697,0.659,�쐼,6.6,��
2020/05/01,04:00,0.701,1.011,0.664,1.221,0.873,0.401,0.696,0.660,�쐼,5.7,��
2020/05/01,04:10,0.701,1.008,0.663,1.217,0.875,0.401,0.696,0.661,���쐼,4.2,��
2020/05/01,04:20,0.701,1.009,0.663,1.220,0.872,0.401,0.698,0.660,��,4.0,��
2020/05/01,04:30,0.698,1.009,0.663,1.221,0.874,0.401,0.696,0.660,��,3.4,��
2020/05/01,04:40,0.701,1.009,0.662,1.219,0.871,0.400,0.699,0.660,���쐼,2.3,��
2020/05/01,04:50,0.701,1.010,0.663,1.223,0.875,0.401,0.698,0.659,�쐼,1.5,��
2020/05/01,05:00,0.699,1.010,0.663,1.219,0.873,0.401,0.696,0.661,�쐼,1.9,��
2020/05/01,05:10,0.700,1.010,0.664,1.221,0.873,0.401,0.697,0.661,�쐼,1.4,��
2020/05/01,05:20,0.700,1.009,0.664,1.221,0.873,0.401,0.697,0.659,�쐼,1.2,��
2020/05/01,05:30,0.701,1.010,0.663,1.221,0.872,0.402,0.697,0.660,��,1.4,��
2020/05/01,05:40,0.699,1.007,0.661,1.220,0.873,0.400,0.697,0.658,��쓌,0.6,��
2020/05/01,05:50,0.700,1.009,0.663,1.221,0.873,0.401,0.697,0.659,-,CALM,��
2020/05/01,06:00,0.700,1.011,0.664,1.219,0.874,0.400,0.698,0.659,�k�k��,0.9,��
2020/05/01,06:10,0.700,1.010,0.665,1.222,0.872,0.400,0.697,0.659,��,1.4,��
2020/05/01,06:20,0.699,1.008,0.664,1.220,0.873,0.402,0.698,0.660,��,1.4,��
2020/05/01,06:30,0.700,1.010,0.664,1.221,0.876,0.399,0.695,0.660,���쓌,0.9,��
2020/05/01,06:40,0.701,1.009,0.665,1.221,0.875,0.400,0.697,0.663,���쓌,0.6,��
2020/05/01,06:50,0.700,1.011,0.664,1.221,0.874,0.400,0.697,0.662,-,CALM,��
2020/05/01,07:00,0.701,1.014,0.665,1.222,0.875,0.400,0.698,0.660,�k�k��,0.6,��
2020/05/01,07:10,0.701,1.011,0.665,1.221,0.875,0.401,0.698,0.660,�k,1.2,��
2020/05/01,07:20,0.699,1.010,0.664,1.218,0.875,0.401,0.697,0.660,���k��,1.2,��
2020/05/01,07:30,0.700,1.012,0.664,1.219,0.873,0.401,0.696,0.661,���k��,0.9,��
2020/05/01,07:40,0.700,1.010,0.666,1.222,0.876,0.400,0.695,0.661,�k�k��,1.1,��
2020/05/01,07:50,0.702,1.009,0.665,1.221,0.875,0.400,0.695,0.658,�k,0.9,��
2020/05/01,08:00,0.700,1.009,0.665,1.219,0.876,0.399,0.697,0.659,-,CALM,��
2020/05/01,08:10,0.699,1.009,0.665,1.222,0.875,0.399,0.696,0.660,-,CALM,��
2020/05/01,08:20,0.701,1.011,0.664,1.221,0.875,0.399,0.695,0.660,���쐼,1.5,��
2020/05/01,08:30,0.701,1.012,0.664,1.220,0.875,0.399,0.695,0.659,���쐼,1.2,��
2020/05/01,08:40,0.702,1.011,0.665,1.221,0.876,0.401,0.696,0.659,���쐼,1.2,��
2020/05/01,08:50,0.699,1.015,0.666,1.220,0.878,0.400,0.695,0.660,�쐼,1.2,��
2020/05/01,09:00,0.700,1.012,0.665,1.223,0.876,0.401,0.696,0.660,��,0.6,��
2020/05/01,09:10,0.701,1.012,0.666,1.222,0.874,0.401,0.694,0.659,-,CALM,��
2020/05/01,09:20,0.700,1.011,0.665,1.222,0.876,0.402,0.695,0.659,�k�k��,0.8,��
2020/05/01,09:30,0.702,1.010,0.666,1.219,0.874,0.399,0.694,0.661,�k��,0.9,��
2020/05/01,09:40,0.700,1.010,0.665,1.221,0.875,0.398,0.694,0.659,-,CALM,��
2020/05/01,09:50,0.700,1.010,0.665,1.223,0.872,0.401,0.697,0.659,��쓌,1.1,��
2020/05/01,10:00,0.699,1.009,0.666,1.222,0.876,0.399,0.698,0.659,��쓌,3.2,��
2020/05/01,10:10,0.698,1.012,0.664,1.219,0.877,0.399,0.696,0.657,��쓌,3.5,��
2020/05/01,10:20,0.699,1.011,0.664,1.221,0.874,0.399,0.697,0.657,��쓌,4.4,��
2020/05/01,10:30,0.700,1.010,0.665,1.224,0.875,0.398,0.694,0.657,��쓌,4.9,��
2020/05/01,10:40,0.699,1.011,0.664,1.224,0.874,0.400,0.696,0.658,��쓌,4.8,��
2020/05/01,10:50,0.699,1.011,0.663,1.222,0.873,0.400,0.699,0.659,��쓌,5.0,��
2020/05/01,11:00,0.699,1.009,0.662,1.223,0.876,0.400,0.697,0.655,��쓌,4.7,��
2020/05/01,11:10,0.703,1.013,0.663,1.222,0.874,0.400,0.698,0.658,��쓌,4.8,��
2020/05/01,11:20,0.700,1.012,0.663,1.222,0.873,0.400,0.698,0.658,��쓌,5.4,��
2020/05/01,11:30,0.702,1.012,0.665,1.224,0.875,0.403,0.698,0.660,��쓌,6.4,��
2020/05/01,11:40,0.702,1.013,0.664,1.223,0.875,0.400,0.697,0.659,��쓌,6.2,��
2020/05/01,11:50,0.703,1.014,0.664,1.220,0.878,0.402,0.698,0.658,��쓌,7.6,��
2020/05/01,12:00,0.705,1.015,0.665,1.219,0.876,0.403,0.698,0.659,��쓌,8.5,��
2020/05/01,12:10,0.701,1.015,0.666,1.220,0.876,0.403,0.699,0.660,��쓌,9.1,��
2020/05/01,12:20,0.704,1.015,0.665,1.222,0.878,0.404,0.699,0.660,��쓌,9.1,��
2020/05/01,12:30,0.704,1.018,0.667,1.222,0.877,0.402,0.700,0.659,��쓌,9.1,��
2020/05/01,12:40,0.704,1.016,0.667,1.222,0.878,0.404,0.700,0.658,��쓌,6.9,��
2020/05/01,12:50,0.705,1.017,0.667,1.221,0.879,0.402,0.700,0.660,��쓌,7.8,��
2020/05/01,13:00,0.705,1.017,0.666,1.219,0.877,0.403,0.700,0.660,��쓌,9.8,��
2020/05/01,13:10,0.703,1.015,0.665,1.221,0.877,0.404,0.702,0.659,��쓌,8.7,��
2020/05/01,13:20,0.705,1.016,0.667,1.223,0.879,0.403,0.700,0.658,��쓌,9.3,��
2020/05/01,13:30,0.705,1.018,0.666,1.224,0.880,0.404,0.699,0.659,��쓌,9.7,��
2020/05/01,13:40,0.705,1.018,0.666,1.223,0.878,0.405,0.700,0.660,��쓌,9.2,��
2020/05/01,13:50,0.706,1.018,0.666,1.222,0.880,0.405,0.699,0.660,��쓌,8.8,��
2020/05/01,14:00,0.706,1.019,0.666,1.225,0.881,0.406,0.699,0.660,��쓌,8.9,��
2020/05/01,14:10,0.705,1.017,0.665,1.221,0.881,0.403,0.701,0.659,��쓌,9.3,��
2020/05/01,14:20,0.704,1.016,0.665,1.222,0.880,0.404,0.700,0.657,��쓌,9.5,��
2020/05/01,14:30,0.705,1.017,0.666,1.222,0.879,0.404,0.700,0.659,��쓌,10.2,��
2020/05/01,14:40,0.705,1.017,0.664,1.223,0.879,0.404,0.699,0.659,��쓌,10.6,��
2020/05/01,14:50,0.704,1.016,0.666,1.225,0.879,0.405,0.698,0.659,��,9.4,��
2020/05/01,15:00,0.705,1.015,0.668,1.222,0.879,0.403,0.699,0.660,��,9.1,��
2020/05/01,15:10,0.705,1.020,0.667,1.225,0.878,0.404,0.700,0.659,��,7.5,��
2020/05/01,15:20,0.703,1.019,0.668,1.224,0.882,0.403,0.699,0.659,��,6.4,��
2020/05/01,15:30,0.704,1.017,0.667,1.221,0.880,0.405,0.699,0.659,��,6.1,��
2020/05/01,15:40,0.703,1.017,0.666,1.224,0.880,0.403,0.700,0.660,��,5.2,��
2020/05/01,15:50,0.706,1.016,0.665,1.226,0.879,0.402,0.698,0.661,��,6.1,��
2020/05/01,16:00,0.705,1.017,0.665,1.223,0.880,0.403,0.698,0.659,��,6.4,��
2020/05/01,16:10,0.704,1.016,0.666,1.224,0.879,0.403,0.699,0.658,��,6.5,��
2020/05/01,16:20,0.703,1.016,0.666,1.221,0.880,0.402,0.698,0.658,��,6.5,��
2020/05/01,16:30,0.703,1.016,0.666,1.223,0.881,0.404,0.697,0.659,��,3.7,��
2020/05/01,16:40,0.704,1.018,0.665,1.223,0.881,0.403,0.700,0.658,��,4.9,��
2020/05/01,16:50,0.704,1.018,0.665,1.225,0.880,0.403,0.697,0.659,��,4.6,��
2020/05/01,17:00,0.704,1.017,0.666,1.226,0.878,0.403,0.698,0.659,��,3.0,��
2020/05/01,17:10,0.702,1.017,0.668,1.227,0.878,0.404,0.699,0.661,��,3.8,��
2020/05/01,17:20,0.702,1.020,0.666,1.226,0.880,0.405,0.699,0.658,��,4.5,��
2020/05/01,17:30,0.701,1.018,0.665,1.228,0.878,0.404,0.697,0.659,��쐼,3.9,��
2020/05/01,17:40,0.704,1.020,0.666,1.227,0.879,0.403,0.696,0.660,��,3.4,��
2020/05/01,17:50,0.701,1.018,0.666,1.228,0.881,0.403,0.697,0.659,��쓌,3.8,��
2020/05/01,18:00,0.704,1.020,0.666,1.227,0.878,0.404,0.697,0.659,��,3.5,��
2020/05/01,18:10,0.703,1.017,0.666,1.227,0.878,0.403,0.696,0.660,��,4.2,��
2020/05/01,18:20,0.703,1.019,0.665,1.228,0.878,0.405,0.698,0.659,��,3.0,��
2020/05/01,18:30,0.705,1.020,0.668,1.229,0.878,0.402,0.696,0.659,��,2.6,��
2020/05/01,18:40,0.704,1.022,0.668,1.228,0.878,0.403,0.698,0.660,��쐼,2.8,��
2020/05/01,18:50,0.704,1.020,0.669,1.226,0.879,0.404,0.698,0.659,��쐼,2.6,��
2020/05/01,19:00,0.706,1.020,0.668,1.228,0.879,0.404,0.698,0.660,��쐼,2.9,��
2020/05/01,19:10,0.707,1.018,0.667,1.227,0.879,0.403,0.698,0.663,��쐼,3.8,��
2020/05/01,19:20,0.705,1.022,0.668,1.226,0.881,0.404,0.697,0.661,��쐼,4.0,��
2020/05/01,19:30,0.705,1.019,0.668,1.227,0.881,0.403,0.699,0.661,�쐼,3.8,��
2020/05/01,19:40,0.704,1.021,0.666,1.227,0.881,0.405,0.698,0.660,���쐼,2.5,��
2020/05/01,19:50,0.705,1.019,0.669,1.226,0.880,0.404,0.700,0.662,���k��,2.2,��
2020/05/01,20:00,0.707,1.019,0.668,1.226,0.882,0.405,0.698,0.661,���k��,2.6,��
2020/05/01,20:10,0.705,1.020,0.667,1.227,0.880,0.404,0.699,0.661,�k��,2.6,��
2020/05/01,20:20,0.704,1.020,0.668,1.228,0.881,0.403,0.699,0.663,�k��,2.6,��
2020/05/01,20:30,0.704,1.018,0.667,1.226,0.881,0.405,0.699,0.662,���k��,2.0,��
2020/05/01,20:40,0.704,1.020,0.667,1.229,0.880,0.405,0.701,0.661,��,1.7,��
2020/05/01,20:50,0.707,1.019,0.667,1.226,0.880,0.403,0.698,0.661,��쐼,2.0,��
2020/05/01,21:00,0.706,1.021,0.667,1.226,0.879,0.404,0.699,0.660,�쐼,1.7,��
2020/05/01,21:10,0.705,1.019,0.666,1.225,0.882,0.405,0.699,0.662,��,2.9,��
2020/05/01,21:20,0.707,1.018,0.666,1.225,0.879,0.404,0.699,0.662,��,2.6,��
2020/05/01,21:30,0.705,1.018,0.667,1.226,0.880,0.403,0.700,0.661,���쐼,2.3,��
2020/05/01,21:40,0.705,1.017,0.668,1.227,0.880,0.404,0.700,0.662,�쐼,3.1,��
2020/05/01,21:50,0.705,1.016,0.669,1.227,0.881,0.403,0.700,0.663,�쐼,3.8,��
2020/05/01,22:00,0.706,1.018,0.667,1.228,0.879,0.404,0.700,0.661,�쐼,3.4,��
2020/05/01,22:10,0.706,1.018,0.669,1.228,0.880,0.403,0.700,0.662,���쐼,2.8,��
2020/05/01,22:20,0.707,1.014,0.667,1.227,0.880,0.403,0.699,0.661,���쐼,3.6,��
2020/05/01,22:30,0.705,1.018,0.669,1.229,0.881,0.403,0.701,0.661,���쐼,4.4,��
2020/05/01,22:40,0.705,1.016,0.669,1.226,0.882,0.404,0.701,0.662,��,3.0,��
2020/05/01,22:50,0.706,1.018,0.667,1.228,0.880,0.404,0.701,0.661,���쐼,3.0,��
2020/05/01,23:00,0.705,1.017,0.667,1.226,0.878,0.402,0.702,0.663,���쐼,4.1,��
2020/05/01,23:10,0.706,1.016,0.667,1.227,0.881,0.403,0.701,0.661,��,3.0,��
2020/05/01,23:20,0.707,1.015,0.668,1.227,0.882,0.404,0.700,0.662,��,2.5,��
2020/05/01,23:30,0.704,1.017,0.667,1.228,0.878,0.404,0.700,0.662,��,2.9,��
2020/05/01,23:40,0.706,1.016,0.666,1.227,0.880,0.404,0.701,0.661,���쐼,4.0,��
2020/05/01,23:50,0.707,1.016,0.668,1.228,0.882,0.404,0.701,0.662,���쐼,3.6,��
